SQ6MTB Weather Reports


Display with metric or nautical units.
time (UTC)temp
F
wind
direction
speed
MPH
gust
MPH
rain 1hr
in
rain 24hr
in
rain mn
in
humidity
%
barometer
mb
20260509082006 55 53 1.0 3.0 0.00 0.00 0.00 67 1021.6
20260509081536 56 51 0.0 6.0 0.00 0.00 0.00 66 1021.6
20260509081041 56 46 2.0 6.0 0.00 0.00 0.00 63 1021.6
20260509080602 57 74 2.0 6.0 0.00 0.00 0.00 63 1021.6
20260509080026 57 77 3.0 6.0 0.00 0.00 0.00 62 1021.6
20260509075543 57 42 2.0 6.0 0.00 0.00 0.00 63 1021.6
20260509075009 58 5 2.0 8.0 0.00 0.00 0.00 63 1021.7
20260509074528 57 41 4.0 8.0 0.00 0.00 0.00 64 1021.6
20260509074050 57 325 0.0 3.0 0.00 0.00 0.00 63 1021.6
20260509073504 57 24 1.0 5.0 0.00 0.00 0.00 63 1021.5
20260509073023 56 346 2.0 5.0 0.00 0.00 0.00 60 1021.6
20260509072544 56 150 0.0 3.0 0.00 0.00 0.00 61 1021.6
20260509072101 56 351 1.0 4.0 0.00 0.00 0.00 62 1021.6
20260509071519 56 240 0.0 4.0 0.00 0.00 0.00 62 1021.6
20260509071036 56 63 0.0 3.0 0.00 0.00 0.00 62 1021.6
20260509070556 56 54 1.0 3.0 0.00 0.00 0.00 62 1021.6
20260509070023 55 335 0.0 2.0 0.00 0.00 0.00 62 1021.8
20260509065542 55 277 0.0 2.0 0.00 0.00 0.00 63 1021.7
20260509065055 55 9 0.0 3.0 0.00 0.00 0.00 61 1021.7
20260509064512 55 340 0.0 1.0 0.00 0.00 0.00 64 1021.8
20260509064043 54 332 0.0 3.0 0.00 0.00 0.00 67 1021.8
20260509063602 54 294 0.0 3.0 0.00 0.00 0.00 67 1021.7
20260509063027 54 342 1.0 3.0 0.00 0.00 0.00 70 1021.7
20260509062546 54 343 0.0 4.0 0.00 0.00 0.00 71 1021.7
20260509062003 53 9 0.0 2.0 0.00 0.00 0.00 73 1021.5
20260509061630 53 13 0.0 3.0 0.00 0.00 0.00 73 1021.6
20260509061046 52 256 0.0 3.0 0.00 0.00 0.00 73 1021.6
20260509060512 52 273 0.0 0.0 0.00 0.00 0.00 72 1021.6
20260509060032 52 322 0.0 0.0 0.00 0.00 0.00 74 1021.7
20260509055553 52 282 0.0 0.0 0.00 0.00 0.00 75 1021.5
20260509055010 51 278 0.0 0.0 0.00 0.00 0.00 76 1021.6
20260509054540 51 360 0.0 0.0 0.00 0.00 0.00 78 1021.6
20260509054047 51 336 0.0 1.0 0.00 0.00 0.00 79 1021.5
20260509053516 50 309 0.0 2.0 0.00 0.00 0.00 80 1021.4
20260509053115 50 205 0.0 0.0 0.00 0.00 0.00 81 1021.4
20260509052555 49 205 0.0 0.0 0.00 0.00 0.00 84 1021.3
20260509052011 48 278 0.0 0.0 0.00 0.00 0.00 84 1021.4
20260509051527 48 278 0.0 0.0 0.00 0.00 0.00 85 1021.4
20260509051044 47 298 0.0 0.0 0.00 0.00 0.00 86 1021.4
20260509050503 47 298 0.0 0.0 0.00 0.00 0.00 87 1021.5
20260509050040 46 298 0.0 0.0 0.00 0.00 0.00 88 1021.4
20260509045551 46 298 0.0 0.0 0.00 0.00 0.00 89 1021.3
20260509045007 45 298 0.0 0.0 0.00 0.00 0.00 90 1021.3
20260509044527 45 298 0.0 0.0 0.00 0.00 0.00 90 1021.3
20260509044044 45 298 0.0 0.0 0.00 0.00 0.00 90 1021.3
20260509043510 45 298 0.0 0.0 0.00 0.00 0.00 90 1021.3
20260509043029 44 298 0.0 0.0 0.00 0.00 0.00 90 1021.2
20260509042549 44 298 0.0 0.0 0.00 0.00 0.00 90 1021.2
20260509042008 44 315 0.0 0.0 0.00 0.00 0.00 90 1021.2
20260509041535 44 315 0.0 0.0 0.00 0.00 0.00 90 1021.2
20260509041055 43 315 0.0 0.0 0.00 0.00 0.00 90 1021.2
20260509040524 43 315 0.0 0.0 0.00 0.00 0.00 90 1021.1
20260509040046 43 315 0.0 0.0 0.00 0.00 0.00 90 1021.2
20260509035603 43 315 0.0 0.0 0.00 0.00 0.00 90 1021.2
20260509035016 43 315 0.0 0.0 0.00 0.00 0.00 90 1021.2
20260509034544 43 315 0.0 0.0 0.00 0.00 0.00 90 1021.2
20260509034100 43 315 0.0 0.0 0.00 0.00 0.00 90 1021.2
20260509033526 43 315 0.0 0.0 0.00 0.00 0.00 90 1021.2
20260509033046 43 315 0.0 0.0 0.00 0.00 0.00 90 1021.2
20260509032511 43 315 0.0 0.0 0.00 0.00 0.00 90 1021.2
20260509032030 43 315 0.0 0.0 0.00 0.00 0.00 90 1021.2
20260509031550 43 315 0.0 0.0 0.00 0.00 0.00 90 1021.2
20260509031007 43 315 0.0 0.0 0.00 0.00 0.00 90 1021.3
20260509030526 43 315 0.0 0.0 0.00 0.00 0.00 90 1021.3
20260509030043 43 327 0.0 0.0 0.00 0.00 0.00 90 1021.3
20260509025509 42 327 0.0 0.0 0.00 0.00 0.00 90 1021.3
20260509025028 42 327 0.0 0.0 0.00 0.00 0.00 90 1021.2
20260509024548 42 327 0.0 0.0 0.00 0.00 0.00 90 1021.3
20260509024005 42 327 0.0 0.0 0.00 0.00 0.00 90 1021.3
20260509023536 42 327 0.0 0.0 0.00 0.00 0.00 90 1021.3
20260509023053 42 327 0.0 0.0 0.00 0.00 0.00 90 1021.3
20260509022523 42 327 0.0 0.0 0.00 0.00 0.00 90 1021.2
20260509022039 42 327 0.0 0.0 0.00 0.00 0.00 90 1021.2
20260509021601 42 340 0.0 0.0 0.00 0.00 0.00 89 1021.3
20260509021015 41 340 0.0 0.0 0.00 0.00 0.00 89 1021.3
20260509020534 41 340 0.0 0.0 0.00 0.00 0.00 89 1021.3
20260509020055 41 340 0.0 0.0 0.00 0.00 0.00 89 1021.3
20260509015521 41 340 0.0 0.0 0.00 0.00 0.00 89 1021.2
20260509015041 41 340 0.0 0.0 0.00 0.00 0.00 89 1021.3
20260509014506 41 340 0.0 0.0 0.00 0.00 0.00 88 1021.2
20260509014026 41 340 0.0 0.0 0.00 0.00 0.00 88 1021.3
20260509013546 41 340 0.0 0.0 0.00 0.00 0.00 88 1021.2
20260509013003 42 340 0.0 0.0 0.00 0.00 0.00 88 1021.1
20260509012530 42 340 0.0 0.0 0.00 0.00 0.00 88 1021.2
20260509012051 42 340 0.0 0.0 0.00 0.00 0.00 87 1021.2
20260509011516 42 340 0.0 0.0 0.00 0.00 0.00 87 1021.2
20260509011034 42 340 0.0 0.0 0.00 0.00 0.00 87 1021.2
20260509010554 42 340 0.0 0.0 0.00 0.00 0.00 87 1021.2
20260509010014 43 340 0.0 0.0 0.00 0.00 0.00 87 1021.2
20260509005530 43 340 0.0 0.0 0.00 0.00 0.00 87 1021.1
20260509005051 43 340 0.0 0.0 0.00 0.00 0.00 87 1021.2
20260509004505 43 340 0.0 0.0 0.00 0.00 0.00 86 1021.2
20260509004035 44 340 0.0 0.0 0.00 0.00 0.00 86 1021.2
20260509003555 44 340 0.0 0.0 0.00 0.00 0.00 86 1021.1
20260509003012 44 340 0.0 0.0 0.00 0.00 0.00 86 1021.1
20260509002539 45 340 0.0 0.0 0.00 0.00 0.00 86 1021.1
20260509002049 45 340 0.0 0.0 0.00 0.00 0.00 86 1021.1
20260509001506 45 340 0.0 0.0 0.00 0.00 0.00 86 1021.1
20260509001025 45 340 0.0 0.0 0.00 0.00 0.00 86 1021.1
20260509000547 46 340 0.0 0.0 0.00 0.00 0.00 86 1021.2
20260509000011 46 340 0.0 0.0 0.00 0.00 0.00 86 1021.1
20260508235538 46 340 0.0 0.0 0.00 0.00 0.00 86 1021.2
20260508235052 46 340 0.0 0.0 0.00 0.00 0.00 86 1021.2
20260508234510 46 340 0.0 0.0 0.00 0.00 0.00 86 1021.3
20260508234041 47 340 0.0 0.0 0.00 0.00 0.00 86 1021.3
20260508233600 47 340 0.0 0.0 0.00 0.00 0.00 86 1021.3
20260508233026 47 340 0.0 0.0 0.00 0.00 0.00 86 1021.3
20260508232543 47 340 0.0 0.0 0.00 0.00 0.00 86 1021.4
20260508232009 47 340 0.0 0.0 0.00 0.00 0.00 86 1021.4
20260508231530 47 340 0.0 0.0 0.00 0.00 0.00 86 1021.4
20260508231050 47 340 0.0 2.0 0.00 0.00 0.00 86 1021.4
20260508230508 47 340 0.0 4.0 0.00 0.00 0.00 86 1021.4
20260508230021 47 333 0.0 3.0 0.00 0.00 0.00 86 1021.4
20260508225540 47 355 0.0 0.0 0.00 0.02 0.00 86 1021.3
20260508225058 47 355 0.0 0.0 0.00 0.02 0.00 85 1021.4
20260508224512 47 34 0.0 0.0 0.00 0.02 0.00 85 1021.3
20260508224032 47 34 0.0 0.0 0.00 0.02 0.00 85 1021.3
20260508223551 48 34 0.0 0.0 0.00 0.02 0.00 85 1021.3
20260508223013 48 55 0.0 0.0 0.00 0.02 0.00 84 1021.2
20260508222528 48 55 0.0 0.0 0.00 0.02 0.00 85 1021.1
20260508222050 48 55 0.0 0.0 0.00 0.02 0.00 85 1021.2
20260508221515 48 55 0.0 0.0 0.00 0.02 0.00 84 1021.3
20260508221031 48 55 0.0 0.0 0.00 0.02 0.00 84 1021.3
20260508220549 48 55 0.0 0.0 0.00 0.02 0.00 84 1021.3
20260508220005 48 55 0.0 0.0 0.00 0.02 0.00 84 1021.3
20260508215535 49 55 0.0 0.0 0.00 0.04 0.02 84 1021.4
20260508215055 49 55 0.0 0.0 0.00 0.04 0.02 84 1021.4
20260508214517 49 55 0.0 0.0 0.00 0.04 0.02 83 1021.4
20260508214033 49 55 0.0 0.0 0.00 0.04 0.02 83 1021.4
20260508213553 49 55 0.0 0.0 0.00 0.04 0.02 84 1021.4
20260508213010 49 55 0.0 0.0 0.00 0.04 0.02 83 1021.3
20260508212540 49 55 0.0 0.0 0.00 0.04 0.02 83 1021.4
20260508212100 49 55 0.0 0.0 0.00 0.04 0.02 83 1021.3
20260508211529 49 55 0.0 0.0 0.00 0.04 0.02 83 1021.3
20260508211050 49 55 0.0 0.0 0.00 0.04 0.02 83 1021.3
20260508210512 49 55 0.0 0.0 0.00 0.04 0.02 83 1021.4
20260508210033 49 55 0.0 0.0 0.00 0.04 0.02 82 1021.4
20260508205551 49 55 0.0 0.0 0.00 0.05 0.02 82 1021.4
20260508205058 49 55 0.0 0.0 0.00 0.05 0.02 81 1021.4
20260508204515 49 55 0.0 0.0 0.00 0.05 0.02 81 1021.4
20260508204036 49 55 0.0 0.0 0.00 0.05 0.02 81 1021.4
20260508203558 50 55 0.0 0.0 0.00 0.05 0.02 81 1021.3
20260508203103 50 55 0.0 0.0 0.00 0.05 0.02 81 1021.3
20260508202519 50 55 0.0 0.0 0.00 0.05 0.02 80 1021.3
20260508202029 50 55 0.0 0.0 0.00 0.05 0.02 80 1021.3
20260508201550 50 55 0.0 0.0 0.00 0.05 0.02 80 1021.3
20260508201009 50 55 0.0 0.0 0.00 0.05 0.02 79 1021.3
20260508200523 50 55 0.0 0.0 0.00 0.05 0.02 78 1021.2
20260508200055 50 55 0.0 0.0 0.00 0.05 0.02 77 1021.2
20260508195603 50 55 0.0 0.0 0.00 0.05 0.02 77 1021.2
20260508195017 50 55 0.0 0.0 0.00 0.05 0.02 77 1021.2
20260508194538 50 55 0.0 0.0 0.00 0.05 0.02 77 1021.2
20260508194102 50 55 0.0 0.0 0.00 0.05 0.02 77 1021.1
20260508193523 50 55 0.0 0.0 0.00 0.05 0.02 77 1021.1
20260508193053 50 55 0.0 0.0 0.00 0.05 0.02 77 1021.1
20260508192510 50 55 0.0 2.0 0.00 0.05 0.02 77 1021.1
20260508192040 50 55 0.0 3.0 0.00 0.05 0.02 76 1021.0
20260508191600 50 67 1.0 4.0 0.00 0.05 0.02 76 1021.1
20260508191015 50 71 2.0 4.0 0.00 0.05 0.02 76 1021.0
20260508190538 50 51 1.0 3.0 0.00 0.05 0.02 76 1020.9
20260508190058 51 55 1.0 3.0 0.00 0.05 0.02 75 1021.0
20260508185520 51 43 1.0 4.0 0.00 0.05 0.02 75 1020.9
20260508185041 51 55 1.0 4.0 0.00 0.05 0.02 75 1020.9
20260508184507 51 60 1.0 3.0 0.00 0.05 0.02 74 1020.9
20260508184025 51 63 1.0 5.0 0.00 0.05 0.02 74 1020.9
20260508183544 51 63 1.0 5.0 0.00 0.05 0.02 74 1020.9
20260508183109 51 49 2.0 5.0 0.00 0.05 0.02 73 1020.9
20260508182520 51 71 1.0 5.0 0.00 0.05 0.02 73 1020.7
20260508182034 51 77 2.0 5.0 0.00 0.05 0.02 72 1020.7
20260508181543 51 65 1.0 4.0 0.00 0.05 0.02 72 1020.6
20260508181102 51 50 1.0 4.0 0.00 0.05 0.02 71 1020.5
20260508180527 51 55 1.0 4.0 0.00 0.05 0.02 71 1020.5
20260508180048 51 53 1.0 4.0 0.00 0.05 0.02 71 1020.4
20260508175515 51 38 1.0 3.0 0.00 0.05 0.02 71 1020.4
20260508175034 52 74 1.0 3.0 0.00 0.05 0.02 71 1020.4
20260508174601 52 30 0.0 3.0 0.00 0.05 0.02 71 1020.5
20260508174007 52 51 0.0 2.0 0.00 0.05 0.02 71 1020.5
20260508173536 52 51 0.0 3.0 0.00 0.05 0.02 71 1020.4
20260508173053 52 42 1.0 3.0 0.00 0.05 0.02 71 1020.3
20260508172516 52 36 0.0 4.0 0.00 0.05 0.02 70 1020.4
20260508172037 52 63 2.0 4.0 0.00 0.05 0.02 70 1020.4
20260508171559 52 56 1.0 3.0 0.00 0.05 0.02 70 1020.3
20260508171022 52 57 1.0 4.0 0.00 0.05 0.02 70 1020.3
20260508170540 52 74 3.0 4.0 0.00 0.05 0.02 70 1020.2
20260508170058 52 74 2.0 4.0 0.00 0.05 0.02 70 1020.2
20260508165513 52 63 1.0 4.0 0.00 0.06 0.02 71 1020.3
20260508165041 52 65 1.0 3.0 0.00 0.06 0.02 70 1020.1
20260508164605 52 101 1.0 4.0 0.00 0.06 0.02 70 1020.1
20260508164026 52 60 2.0 4.0 0.00 0.06 0.02 71 1020.1
20260508163545 52 9 1.0 4.0 0.00 0.06 0.02 71 1020.3
20260508163124 52 5 2.0 4.0 0.00 0.06 0.02 70 1020.2
20260508162526 52 72 0.0 3.0 0.00 0.06 0.02 71 1020.2
20260508162045 52 46 0.0 4.0 0.00 0.06 0.02 70 1020.3
20260508161512 53 53 2.0 4.0 0.00 0.06 0.02 70 1020.3
20260508161030 53 69 1.0 4.0 0.00 0.06 0.02 69 1020.3
20260508160536 53 46 2.0 5.0 0.00 0.06 0.02 69 1020.2
20260508160053 53 29 2.0 5.0 0.00 0.06 0.02 68 1020.1
20260508155520 53 355 1.0 4.0 0.00 0.09 0.02 68 1020.2
20260508155037 53 27 0.0 8.0 0.00 0.09 0.02 67 1020.3
20260508154555 53 65 3.0 8.0 0.00 0.09 0.02 67 1020.2
20260508154013 53 44 2.0 3.0 0.00 0.09 0.02 68 1020.1
20260508153538 53 360 0.0 5.0 0.00 0.09 0.02 67 1020.1
20260508153059 53 16 3.0 5.0 0.00 0.09 0.02 68 1020.0
20260508152514 53 67 2.0 7.0 0.00 0.09 0.02 68 1020.0
20260508152037 53 58 3.0 7.0 0.00 0.09 0.02 68 1020.1
20260508151551 53 348 0.0 6.0 0.00 0.09 0.02 69 1020.2
20260508151018 53 97 3.0 6.0 0.00 0.09 0.02 67 1020.2
20260508150529 53 121 2.0 6.0 0.00 0.09 0.02 67 1020.2
20260508150046 53 70 2.0 9.0 0.00 0.09 0.02 68 1020.3
20260508145602 53 66 2.0 9.0 0.00 0.11 0.02 67 1020.4
20260508145016 53 61 3.0 6.0 0.00 0.11 0.02 67 1020.3
20260508144542 53 101 2.0 6.0 0.00 0.11 0.02 68 1020.4
20260508144004 53 26 2.0 6.0 0.00 0.11 0.02 67 1020.2
20260508143519 54 43 1.0 10.0 0.00 0.11 0.02 67 1020.2
20260508143033 54 71 3.0 10.0 0.00 0.11 0.02 67 1020.2
20260508142550 54 48 1.0 6.0 0.00 0.11 0.02 67 1020.1
20260508142106 54 5 2.0 6.0 0.00 0.11 0.02 67 1020.1
20260508141515 54 19 2.0 6.0 0.00 0.11 0.02 65 1020.0
20260508141042 54 41 3.0 5.0 0.00 0.11 0.02 65 1020.0
20260508140559 55 93 1.0 5.0 0.00 0.11 0.02 65 1020.0
20260508140014 55 52 2.0 5.0 0.00 0.11 0.02 65 1020.1
20260508135539 55 326 2.0 5.0 0.00 0.11 0.02 65 1020.1
20260508135055 55 10 1.0 3.0 0.00 0.11 0.02 63 1020.0
20260508134524 55 129 0.0 5.0 0.00 0.11 0.02 65 1020.0
20260508134034 54 335 0.0 5.0 0.00 0.11 0.02 67 1020.0
20260508133553 54 47 0.0 5.0 0.00 0.11 0.02 69 1020.0
20260508133014 53 12 0.0 5.0 0.00 0.11 0.02 68 1020.1
20260508132534 53 22 0.0 7.0 0.00 0.11 0.02 69 1020.1
20260508132050 53 46 0.0 7.0 0.00 0.11 0.02 68 1020.3
20260508131505 54 46 0.0 6.0 0.00 0.11 0.02 67 1020.4
20260508131020 54 38 0.0 5.0 0.00 0.11 0.02 67 1020.4
20260508130535 54 56 2.0 5.0 0.00 0.11 0.02 64 1020.4
20260508130055 54 50 0.0 5.0 0.00 0.11 0.02 65 1020.5
20260508125600 54 355 2.0 5.0 0.00 0.11 0.02 66 1020.5
20260508125011 54 55 0.0 5.0 0.00 0.11 0.02 66 1020.5
20260508124537 53 335 2.0 5.0 0.00 0.11 0.02 66 1020.6
20260508124054 53 347 0.0 2.0 0.00 0.11 0.02 68 1020.6
20260508123507 52 315 0.0 5.0 0.00 0.11 0.02 68 1020.6
20260508123036 52 323 1.0 6.0 0.00 0.11 0.02 69 1020.5
20260508122548 52 5 3.0 6.0 0.00 0.11 0.02 70 1020.5
20260508122105 52 5 0.0 5.0 0.00 0.11 0.02 71 1020.5
20260508121525 52 337 1.0 4.0 0.00 0.11 0.02 69 1020.5
20260508121041 52 9 1.0 4.0 0.00 0.11 0.02 70 1020.6
20260508120557 52 5 1.0 8.0 0.00 0.11 0.02 71 1020.7
20260508120020 52 346 2.0 8.0 0.00 0.11 0.02 71 1020.6
20260508115537 52 12 2.0 6.0 0.00 0.11 0.02 73 1020.7
20260508115052 52 5 0.0 6.0 0.00 0.11 0.02 72 1020.7
20260508114516 52 355 1.0 8.0 0.00 0.11 0.02 72 1020.7
20260508114033 52 336 1.0 5.0 0.00 0.11 0.02 71 1020.5
20260508113551 52 355 1.0 5.0 0.00 0.11 0.02 71 1020.6
20260508113005 52 342 1.0 5.0 0.00 0.11 0.02 70 1020.6
20260508112520 52 70 0.0 5.0 0.00 0.11 0.02 72 1020.5
20260508112046 52 248 1.0 4.0 0.00 0.11 0.02 72 1020.4
20260508111603 51 21 0.0 4.0 0.00 0.11 0.02 73 1020.4
20260508111026 51 325 1.0 4.0 0.00 0.11 0.02 72 1020.4
20260508110542 51 323 0.0 4.0 0.00 0.11 0.02 73 1020.5
20260508110133 51 360 0.0 3.0 0.00 0.11 0.02 74 1020.6
20260508105512 51 38 1.0 3.0 0.00 0.13 0.02 75 1020.6
20260508105038 51 360 0.0 2.0 0.00 0.13 0.02 74 1020.7
20260508104555 51 360 0.0 2.0 0.00 0.13 0.02 77 1020.6
20260508104015 51 351 0.0 2.0 0.00 0.13 0.02 75 1020.6
20260508103531 50 351 0.0 6.0 0.00 0.13 0.02 76 1020.6
20260508103049 50 346 3.0 6.0 0.00 0.13 0.02 76 1020.6
20260508102515 50 331 2.0 4.0 0.00 0.13 0.02 78 1020.7
20260508102029 50 299 1.0 4.0 0.00 0.13 0.02 78 1020.6
20260508101552 50 48 0.0 4.0 0.00 0.13 0.02 77 1020.7
20260508101103 50 30 1.0 4.0 0.00 0.13 0.02 78 1020.6
20260508100517 50 54 0.0 6.0 0.00 0.13 0.02 78 1020.7
20260508100030 50 306 3.0 6.0 0.00 0.13 0.02 77 1020.7
20260508095548 50 15 0.0 4.0 0.00 0.14 0.02 77 1020.7
20260508095052 50 341 2.0 5.0 0.00 0.14 0.02 78 1020.6
20260508094602 50 350 1.0 6.0 0.00 0.14 0.02 78 1020.7
20260508094015 50 328 0.0 5.0 0.00 0.14 0.02 79 1020.6
20260508093531 50 61 1.0 5.0 0.00 0.14 0.02 79 1020.7
20260508093057 49 40 1.0 3.0 0.00 0.14 0.02 80 1020.6
20260508092512 49 84 1.0 5.0 0.00 0.14 0.02 79 1020.6
20260508092029 49 74 1.0 5.0 0.00 0.14 0.02 80 1020.6
20260508091544 49 53 0.0 5.0 0.00 0.14 0.02 81 1020.7
20260508091101 48 50 1.0 5.0 0.00 0.14 0.02 81 1020.7
20260508090513 48 41 1.0 5.0 0.00 0.14 0.02 81 1020.7
20260508085558 48 276 0.0 0.0 0.00 0.14 0.02 83 1020.7
20260508085011 48 39 0.0 4.0 0.00 0.14 0.02 83 1020.7
20260508084538 48 49 1.0 5.0 0.00 0.14 0.02 83 1020.6
20260508084056 48 89 2.0 5.0 0.00 0.14 0.02 84 1020.6
20260508083507 47 59 1.0 4.0 0.00 0.14 0.02 85 1020.6
20260508083031 47 43 0.0 5.0 0.00 0.14 0.02 85 1020.6
20260508082547 47 113 2.0 5.0 0.00 0.14 0.02 85 1020.5